GOES 1 [-]

Last updated on Nov. 20, 2016, 5:18 p.m. UTC

1 08366U 75100A   16325.25192436 -.00000156  00000-0  00000+0 0  9997
2 08366  12.3733 320.9953 0007170 266.6110 182.5588  1.00316687150153
UTC
Height (km)
Latitude
Longitude
Inclination
Orbital Period
UTC large
Height (km)
Speed (km/s)
/
Latitude / Longitude
Inclination (degrees)
Orbital Period (minutes)
Azimuth
Elevation
Range (km)
Doppler Factor
iOS Compass Heading
iOS Angle